Simultaneous Nadir Overpasses (SNOs) Predictions

Prediction of SNOs between GOES-16 and TERRA Satellite Orbit:

Table of predicted SNOs for the next 14.0 days since TLE Epoch: 8/10/2024
Index Date Time (GOES-16) GOES-16 Lat,Lon TERRA Lat,Lon Distance(km) Time Diff (sec)
1 08/11/2024 02:43:32 0.03, -75.21 0.02, -75.31 11.14 80
2 08/13/2024 02:28:34 0.02, -75.22 0.92, -71.05 473.40 80
3 08/13/2024 14:45:45 -0.02, -75.22 0.10, -75.88 74.59 80
4 08/15/2024 14:30:46 -0.02, -75.23 -0.81, -71.63 410.45 80
5 08/16/2024 02:48:05 0.02, -75.23 -0.26, -76.48 142.30 80
6 08/18/2024 02:30:25 0.03, -75.25 0.65, -72.22 343.33 80
7 08/18/2024 14:50:16 -0.03, -75.25 0.34, -77.05 204.14 80
8 08/20/2024 14:32:35 -0.02, -75.28 -0.57, -72.79 283.05 80
9 08/21/2024 02:55:14 0.02, -75.28 -0.47, -77.65 268.95 80
10 08/23/2024 02:34:52 0.02, -75.31 0.43, -73.38 219.36 80
11 08/23/2024 14:54:41 -0.02, -75.32 0.57, -78.20 327.48 80
